{"data":{"norad_id":69820,"intl_designator":"2026-154B","name":"STARLINK-37553","alt_names":[],"object_type":"PAYLOAD","status":"ACTIVE","operator":null,"country":"US","launch_date":"2026-07-05","launch_site_code":"AFETR","launch_vehicle":null,"mission":null,"orbit_class":"UNKNOWN","rcs_meters":null,"size_class":null,"mass_kg":null,"dimensions":null,"purposes":["comms"],"wikipedia_slug":null,"has_3d_model":false,"image_url":null,"decayed_at":null,"tle_current":{"epoch":"2026-09-19T22:23:16.952640Z","epoch_age_seconds":66807,"freshness":"FRESH","line1":"1 69820U 26154B   26262.93283510  .00014945  00000+0  45236-3 0  9997","line2":"2 69820  53.1612 334.1937 0001237  86.1568 273.9576 15.34414124 13150","mean_motion":15.34414124,"eccentricity":0.0001237,"inclination_deg":53.1612,"raan_deg":334.1937,"arg_perigee_deg":86.1568,"mean_anomaly_deg":273.9576,"bstar":0.00045236,"rev_number":1315,"period_min":93.84689422997,"perigee_km":461.81505427973,"apogee_km":463.50746776951,"semimajor_km":6840.7982610246,"source":"CELESTRAK","updated_at":"2026-09-20T09:00:44.291274Z"}}}